This demonstration page uses our WeatherBlox Daily Observations layout. Learn more.

36.17497, -115.13722

Hourly Observations for July 7, 2016

Temp ( °F °C ) Dew Point ( °F °C ) Humidity (%) Winds ( mph kmh ) Pressure ( in mb ) Visibility ( mi km ) Precip ( " mm )
12:53 am 00:53 Clear 87 30.6 32 0 14 14 SSW 14 22 29.62 1003 10 16.09344 0 0
1:53 am 01:53 Clear 87 30.6 31 -0.6 13 13 SSW 16 26 29.62 1003 10 16.09344 0 0
2:53 am 02:53 Clear 85 29.4 29 -1.7 13 13 S 16 26 29.65 1004 10 16.09344 0 0
3:53 am 03:53 Clear 84 29 34 1 16 16 S 13 20 29.68 1005 10 16.09344 0 0
4:53 am 04:53 Clear 80 26.7 34 1.1 19 19 SE 9 15 29.71 1006 10 16.09344 0 0
5:53 am 05:53 Sunny 80 26.7 34 1.1 19 19 SE 7 11 29.74 1007 10 16.09344 0 0
6:53 am 06:53 Sunny 82 27.8 34 1.1 18 18 SE 12 19 29.74 1007 10 16.09344 0 0
7:53 am 07:53 Sunny 85 29.4 34 1.1 16 16 SSE 12 19 29.77 1008 10 16.09344 0 0
8:53 am 08:53 Sunny 88 31.1 33 0.6 14 14 S 14 22 29.77 1008 10 16.09344 0 0
9:53 am 09:53 Sunny 92 33.3 29 -1.7 10 10 SSE 14 22 29.74 1007 10 16.09344 0 0
10:53 am 10:53 Sunny 94 34.4 32 0 11 11 S 13 20 29.74 1007 10 16.09344 0 0
11:53 am 11:53 Sunny 95 35 35 1.7 12 12 SSE 14 22 29.74 1007 10 16.09344 0 0
12:53 pm 12:53 Sunny 97 36.1 34 1.1 11 11 SSE 10 17 29.68 1005 10 16.09344 0 0
1:53 pm 13:53 Sunny 98 36.7 36 2.2 11 11 SSW 15 24 29.65 1004 10 16.09344 0 0
2:53 pm 14:53 Sunny 100 37.8 37 2.8 11 11 SSE 10 17 29.62 1003 10 16.09344 0 0
3:53 pm 15:53 Sunny 102 38.9 35 1.7 10 10 SE 15 24 29.62 1003 10 16.09344 0 0
4:53 pm 16:53 Sunny 102 38.9 26 -3.3 7 7 S 9 15 29.56 1001 10 16.09344 0 0
5:53 pm 17:53 Sunny 102 38.9 24 -4.4 6 6 SW 12 19 29.56 1001 10 16.09344 0 0
6:53 pm 18:53 Sunny 100 37.8 28 -2.2 8 8 WSW 14 22 29.59 1002 10 16.09344 0 0
7:53 pm 19:53 Sunny 98 36.7 29 -1.7 9 9 SW 13 20 29.59 1002 10 16.09344 0 0
8:53 pm 20:53 Clear 96 35.6 28 -2.2 9 9 SW 12 19 29.59 1002 10 16.09344 0 0
9:53 pm 21:53 Clear 94 34.4 28 -2.2 9 9 SSW 8 13 29.65 1004 10 16.09344 0 0
10:53 pm 22:53 Clear 93 33.9 28 -2.2 10 10 SW 10 17 29.65 1004 10 16.09344 0 0
11:53 pm 23:53 Clear 90 32.2 27 -2.8 10 10 SW 12 19 29.65 1004 10 16.09344 0 0

Powered by AerisWeather